User: anonymous   Login
Location: Unspecified
(0.0000°N, 0.0000°E)
Time: 07:49:55
(UTC+00:00)
Language:

Kiku-3 - Orbit

View from above orbital plane
View from above orbital plane
View from above satellite
View from above satellite

Ground track
Ground track

The orbit data is extracted from the following two-line orbital elements,

1 12295U 81012A   18112.71809300 +.00002153 +00000-0 +40812-3 0  9991
2 12295 028.4246 287.8233 5026902 029.3042 351.3827 05.56661725470715
Epoch (UTC): 22 April 2018 17:14:03
Eccentricity: 0.5026902
inclination: 28.4246°
perigee height: 310 km
apogee height: 13830 km
right ascension of ascending node: 287.8233°
argument of perigee: 29.3042°
revolutions per day: 5.56661725
mean anomaly at epoch: 351.3827°
orbit number at epoch: 47071

The dashed part of the orbit path shows where the satellite is in the earth's shadow,  

DLR